OBJECT AM, 68451

Orbit data source: Space-Track

You're viewing an Uncataloged Satellite

Recently launched and/or uncataloged satellites may have evolving metadata. Metadata may include but not limited to: Owner, Maufacturer, Bus, Motor, and Mission.

OBJECT AM, 68451 is a satellite in SSO that was launched on Mon, 30 Mar 2026 UTC via an FALCON 9 launch vehicle from the Air Force Western Test Range (AFWTR). Unknown objects in Earth's orbit typically refer to objects detected orbiting the Earth but have not yet been identified or cataloged. These objects could be anything from previously untracked satellites, spent rocket stages, debris from satellite collisions, or even natural meteoroids temporarily captured by Earth's gravity.

Loading next visibility...
Identifier
68451, 2026-067AM
Orbit
SSO
Country
Flag of TBDTBD
Related business
None
Manufacturer
Unknown
Mission
Operational spacecraft
Bus & Motor
Unknown
Mass
Unknown
Launch date (UTC)
2026-03-30 (1 month ago)
Launch vehicle
FALCON 9
Launch site
Air Force Western Test Range (AFWTR)
Object type
Unknown
Shape & HBR
Unknown shape, 1.1 m
Radar Cross Section
RCS unknown

Expand to show TLE details & history
Last TLE update: 14 hours ago

TLE from 14 hours ago
0 OBJECT AM
1 68451U 26067AM  26127.13915162  .00006146  00000-0  30260-3 0  9992
2 68451  97.4490  86.2019 0002833 117.7794 242.3727 15.18333483  5716
Epoch: 2026-05-07T03:20Z
TLE epoch observation values (Epoch: 2026-05-07T03:20:22.699Z)
Latitude
-0.00011°
Longitude
171.11775°
Altitude
514.869 km
Speed
7.606 km/s
True Right ascension
05h 44m 48s
True Declination
0° 00' 00"
Sunlit
Object was in daylight at epoch
Visualization orbit readout
Latitude
Unknown
Longitude
Unknown
Altitude
Unknown
Speed
Unknown
Apparent Right ascension
Unknown
Apparent Declination
Unknown
Sunlit
N/A
Visualization observer readout
Local Sidereal Time
01:02:30
Azimuth
Unknown
Elevation
Unknown
Doppler factor
Unknown
Orbital elements
Apogee altitude
509.798 km
Perigee altitude
505.896 km
Semi-major axis
6,885.984 km
Eccentricity
0.00028
Inclination
97.449°
RAAN
86.2019°
Arg. of periapsis
117.7794°
True anomaly
242.34394°
Mean anomaly
242.3727°
Eccentric anomaly
242.35832°
Mean motion
3.79834 °/min
Orbital period
94.78 mins
BSTAR
0.0003026
Loading maneuver chart data...
Computing Atmospheric mass density...
Loading historical data...
Loading historical data...
Loading historical data...
Loading historical data...
Loading historical data...
Loading historical data...
Loading historical data...

Documentation

Showing up to 5 results
|